Location: Frederiksoord
(52.8419°N, 6.1762°E)
Time: 21:29:29
(UTC+00:00)

Daily predictions for brighter satellites

Satellite Brightness Start Highest point End
(mag) Time Altitude Azimuth Time Altitude Azimuth Time Altitude Azimuth
Cosmos 2360 Rocket 2.7 16:21:25 10° SW 16:27:01 62° NW 16:32:40 10° NNE
BREEZE-M TANK 4.3 16:26:06 10° WSW 16:29:32 30° S 16:33:23 10° ESE
Cosmos 2344 4.0 16:24:07 10° S 16:31:09 41° ESE 16:37:53 10° NE
SJ-12 4.0 16:29:25 10° S 16:33:15 77° WSW 16:37:09 10° NNW
SL-16 R/B 3.4 16:28:54 10° WSW 16:34:06 36° NW 16:39:21 10° NNE
Cosmos 1937 Rocket 4.2 16:31:41 10° NNW 16:36:12 30° NE 16:40:43 10° ESE
ASTEX 1 3.4 16:34:18 10° S 16:39:10 88° ENE 16:44:03 10° N
Cosmos 1354 Rocket 4.4 16:34:30 10° NNW 16:39:43 70° WSW 16:44:54 10° SSE
Meteor 1-31 Rocket 4.1 16:38:01 10° E 16:40:19 16° ENE 16:42:38 10° NNE
Cosmos 1943 Rocket 2.2 16:38:01 10° NNW 16:43:41 63° NE 16:49:16 10° SE
CZ-2D R/B 3.6 16:40:42 10° S 16:44:05 60° WSW 16:47:30 10° NNW
ARIANE 5 R/B 3.6 16:41:56 10° S 16:47:01 51° W 16:52:06 10° NNW
CZ-2C R/B 4.3 16:48:32 10° E 16:49:57 12° ENE 16:51:23 10° NNE
RESURS DK-1 2.3 16:46:44 10° NNW 16:50:43 58° NE 16:54:41 10° SE
Cosmos 2237 Rocket 3.1 16:46:19 10° SSE 16:51:07 29° ESE 16:55:57 10° NE
Cosmos 1515 Rocket 4.4 16:50:28 10° SSW 16:54:40 51° WNW 16:58:55 10° N
Tsikada Rocket 4.0 16:49:14 10° S 16:55:23 84° E 17:01:36 10° NNE
Cosmos 1862 Rocket 4.4 16:51:46 10° SSE 16:55:34 29° E 16:59:24 10° NNE
BlueWalker 3 1.8 16:52:41 10° W 16:56:21 85° N 16:59:51 11° E
Cosmos 1455 2.0 16:54:03 10° NNW 16:57:17 72° W 17:00:28 10° S
USA 81 4.1 16:52:11 10° S 16:57:27 90° E 17:02:46 10° N
Cosmos 2278 Rocket 2.3 16:52:07 10° NNW 16:57:50 88° SW 17:03:29 10° SSE
BREEZE-M DEB (TANK) 3.0 16:56:07 10° SSW 16:57:59 21° SSE 17:00:09 11° E
COSMO-SKYMED 1 3.6 16:56:27 10° NE 17:00:05 25° E 17:03:41 10° SSE
Cosmos 2219 Rocket 2.7 16:56:33 10° SW 17:02:05 60° NW 17:07:40 10° NNE
SJ-7 4.1 16:58:44 10° SSE 17:02:31 76° ENE 17:06:21 10° NNW
ARGOS Delta rocket 3.7 16:58:31 10° SSE 17:03:09 85° ENE 17:07:37 10° N
ISS -1.9 17:01:33 10° SSW 17:04:02 19° SE 17:06:06 12° ESE
CZ-4C R/B 3.2 17:02:03 10° SSE 17:05:23 21° ESE 17:08:01 14° ENE
CSL-04 DEB 4.4 17:03:08 10° SSE 17:07:00 80° WSW 17:10:49 10° NNW
Meteor 1-21 4.2 17:04:17 10° S 17:09:51 74° E 17:15:31 10° NNE
USA 306 1.4 17:09:22 10° WNW 17:11:26 64° N 17:12:55 22° E
SL-14 R/B 4.4 17:08:29 10° SW 17:12:05 42° WNW 17:15:43 10° N
Cosmos 1763 Rocket 3.5 17:07:48 10° SSW 17:12:57 68° ESE 17:18:05 10° NNE
Cosmos 1733 Rocket 3.0 17:09:00 10° N 17:13:25 72° ENE 17:17:49 10° SSE
Spot 4 Rocket 4.3 17:08:21 10° S 17:13:29 74° WSW 17:18:38 10° NNW
YAOGAN 1 3.2 17:10:22 10° SE 17:14:12 33° ENE 17:18:03 10° N
Cosmos 540 Rocket 3.5 17:13:38 10° S 17:18:41 61° ESE 17:23:45 10° NNE
Landsat 7 3.8 17:15:42 10° SSE 17:20:17 57° ENE 17:24:54 10° N
Cosmos 2322 3.9 17:15:42 10° SW 17:21:26 77° WNW 17:27:12 10° NNE
USA 215 3.3 17:16:12 15° ENE 17:21:46 76° NNW 17:28:18 10° WSW
SPOT 1/Viking Rocket 4.2 17:17:34 10° ESE 17:22:07 33° ENE 17:26:40 10° N
Cosmos 468 Rocket 4.1 17:17:35 10° S 17:22:37 53° ESE 17:27:14 12° NE
Cosmos 2279 Rocket 4.1 17:19:13 10° NNW 17:25:27 82° W 17:31:38 10° S
Cosmos 2228 Rocket 3.1 17:21:55 10° S 17:26:23 61° E 17:30:55 10° NNE
Cosmos 1656 Rocket 4.0 17:23:02 10° NNW 17:28:16 42° NE 17:33:23 11° ESE
Cosmos 1898 Rocket 3.5 17:23:07 10° NNW 17:28:26 82° ENE 17:33:45 10° SSE
Cosmos 1980 Rocket 4.3 17:26:28 10° NW 17:29:11 13° N 17:31:54 10° NNE
Resurs 1-3 4.3 17:26:03 10° SE 17:29:50 31° ENE 17:33:38 10° N
Cosmos 841 Rocket 4.2 17:27:29 10° SSE 17:32:10 34° ESE 17:35:00 20° NE
Aureole 1 Rocket 4.4 17:24:37 10° NNW 17:32:25 87° WSW 17:39:27 10° SSE
Dummy Sat-01 4.4 17:31:17 10° S 17:34:57 74° E 17:38:37 10° N
Cosmos 1703 4.5 17:34:40 10° SE 17:36:27 21° ESE 17:36:27 21° ESE
Okean 1-7 3.2 17:35:59 10° SSE 17:40:04 46° E 17:43:22 15° NNE
SL-16 R/B 3.3 17:36:14 10° SSE 17:40:29 22° ESE 17:40:55 22° E
Cosmos 1980 3.7 17:35:02 10° SSW 17:40:36 65° ESE 17:44:57 17° NE
Cosmos 1953 2.9 17:38:34 10° NNW 17:42:14 55° W 17:45:52 10° S
Cosmos 1300 Rocket 4.5 17:39:32 10° N 17:42:41 27° NE 17:42:41 27° NE
NOSS 8 (E) 4.3 17:39:40 10° SW 17:43:34 77° SE 17:44:41 38° NE
CZ-4 R/B 3.7 17:48:42 10° NNE 17:48:42 10° NNE 17:48:47 10° NNE
SKYMED 2 3.5 17:44:02 10° NNE 17:48:23 67° ESE 17:52:42 10° S
ADEOS 4.2 17:48:47 27° E 17:50:22 32° ENE 17:54:58 10° N
NOSS 0 Rocket 3.9 17:44:23 10° SSW 17:50:33 89° WNW 17:55:40 16° NNE
Cosmos 1818 3.5 17:45:56 10° NW 17:51:26 81° NE 17:56:19 13° SE
ATLAS 2AS CENTAUR R/B 2.6 17:46:11 10° NW 17:53:05 79° NE 17:59:05 13° SE
Cosmos 2369 Rocket 2.5 17:49:01 10° NNW 17:54:24 45° NE 17:56:54 28° ESE
Cosmos 1092 Rocket 4.4 17:49:39 10° SSE 17:55:15 38° E 18:00:55 10° NNE
NOSS 8 (H) 4.2 17:51:33 10° SW 17:55:17 85° SE 17:55:55 55° NE
Resurs 01 Rocket 3.3 17:57:26 18° NNE 17:57:26 18° NNE 17:59:03 10° N
ACS3 Solar Sail 1.8 17:50:49 10° SSE 17:57:13 85° ENE 18:03:39 10° NNW
COSMOS 2428 3.3 17:52:21 10° SW 17:57:55 55° NW 18:02:52 13° NNE
Cosmos 372 Rocket 4.4 17:53:24 10° NNW 17:58:25 62° WSW 18:03:27 10° S
Cosmos 2333 Rocket 4.1 17:55:34 10° W 17:59:58 22° NNW 18:04:22 10° NNE
Helios 1B rocket 4.5 18:08:10 13° N 18:08:10 13° N 18:08:40 10° N
NOSS 8 (F) 4.5 18:02:29 10° SW 18:06:14 68° NW 18:06:43 57° NNE
BREEZE-M DEB (TANK) 3.4 17:58:28 10° WSW 18:06:18 59° S 18:07:22 41° ESE
Cosmos 1908 Rocket 3.4 18:02:07 10° N 18:06:30 81° ENE 18:10:49 10° SSE
Cosmos 2322 Rocket 4.2 18:05:23 10° WNW 18:09:19 19° NNW 18:13:17 10° NNE
Cosmos 2360 Rocket 4.2 18:08:00 10° WNW 18:12:11 20° NNW 18:16:22 10° NNE
EO 1 Delta rocket 3.8 18:07:30 10° N 18:12:20 87° WNW 18:16:58 10° SSW
Meteor 2-12 Rocket 4.4 18:06:32 10° S 18:12:29 59° E 18:18:29 10° NNE
Meteor 1-31 Rocket 3.2 18:09:58 10° S 18:13:29 56° W 18:17:02 10° NNW
CZ-4B DEB 4.4 18:12:00 36° ESE 18:13:32 45° ENE 18:18:45 10° N
Cosmos 2297 3.6 18:11:48 10° NNW 18:17:34 68° NE 18:20:17 32° SE
CZ-4B R/B 4.3 18:18:57 31° NNE 18:18:57 31° NNE 18:22:09 10° N
Okean 2 4.3 18:14:23 10° SSW 18:18:11 46° WNW 18:22:01 10° N
Cosmos 1937 Rocket 4.1 18:13:23 10° NNW 18:18:25 57° WSW 18:23:28 10° S
Cosmos 2263 4.4 18:12:52 10° NNW 18:18:26 50° NE 18:19:34 44° E
SL-16 R/B 4.4 18:16:44 10° NW 18:19:58 15° NNW 18:23:11 10° NNE
CZ-2C R/B 2.5 18:22:19 73° WSW 18:22:19 73° WSW 18:25:42 10° NNW
Cosmos 2026 Rocket 4.0 18:17:37 10° S 18:23:53 62° E 18:30:09 10° NNE
Cosmos 1943 Rocket 4.2 18:22:16 10° NW 18:27:03 29° WSW 18:31:47 10° SSW
BREEZE-M DEB (TANK) 3.5 18:15:38 10° WSW 18:27:45 54° S 18:28:56 43° SE
Cosmos 1428 Rocket 4.4 18:24:30 10° S 18:30:44 87° E 18:36:55 10° N
BlueWalker 3 2.6 18:30:31 10° W 18:33:52 47° SW 18:33:52 47° SW
Cosmos 2237 Rocket 2.6 18:29:09 10° SW 18:34:48 63° NW 18:37:58 27° NNE
COSMO-SKYMED 1 3.6 18:32:35 12° N 18:36:27 45° WNW 18:40:35 10° SW
ISS -2.1 18:37:01 10° WSW 18:39:01 31° SW 18:39:01 31° SW
Cosmos 1782 Rocket 3.7 18:37:57 10° NNW 18:41:42 65° NNW 18:41:42 65° NNW
Cosmos 2344 3.7 18:37:54 10° WSW 18:45:09 62° NNW 18:48:48 32° NE
Cosmos 2219 Rocket 4.2 18:43:09 10° WNW 18:47:12 20° NNW 18:50:23 13° N
YAOGAN 1 4.2 18:46:12 10° SSW 18:50:06 34° W 18:54:01 10° NNW
CZ-4C R/B 1.9 18:48:07 10° SW 18:52:45 82° NW 18:53:04 77° NNE
Cosmos 1125 Rocket 4.4 18:49:51 10° NNW 18:53:08 35° N 18:53:08 35° N
ATLAS 5 CENTAUR R/B 3.6 18:54:09 10° SW 18:54:38 14° SW 18:54:38 14° SW
CZ-4B R/B 4.1 19:00:45 35° N 19:00:45 35° N 19:03:55 10° N
Meteor 1-24 Rocket 3.8 18:52:58 10° S 18:58:08 65° SSE 18:58:08 65° SSE
SPOT 1/Viking Rocket 4.4 18:56:22 10° S 19:01:21 47° W 19:06:20 10° NNW
Cosmos 1703 Rocket 4.2 18:57:32 10° SSW 19:01:54 53° WNW 19:02:12 52° WNW
USA 215 3.3 19:03:32 56° NE 19:04:34 63° N 19:11:00 10° WNW
Meteor 2-5 Rocket 4.3 19:03:43 10° S 19:07:38 46° S 19:07:38 46° S
Cosmos 841 Rocket 4.4 19:08:47 10° SW 19:13:51 47° WNW 19:15:03 40° NNW
Cosmos 1980 Rocket 4.4 19:12:41 10° NNW 19:14:42 14° N 19:14:42 14° N
Cosmos 1553 Rocket 4.0 19:17:04 10° NNW 19:23:13 74° W 19:23:51 67° SW
SL-16 R/B 2.6 19:18:18 10° SW 19:22:50 58° SW 19:22:50 58° SW
ADEOS 4.3 19:29:31 50° WSW 19:29:41 50° W 19:34:46 10° NNW
Resurs 01 Rocket 4.0 19:34:51 17° NNW 19:34:51 17° NNW 19:35:54 10° NNW
Cosmos 2369 Rocket 3.1 19:33:10 10° NW 19:38:25 42° WSW 19:38:45 42° WSW
ACS3 Solar Sail 4.1 19:36:44 10° SW 19:41:33 22° W 19:46:24 10° NW
ATLAS 2AS CENTAUR R/B 4.1 19:37:36 10° WNW 19:43:25 32° WSW 19:46:35 21° SSW
Cosmos 2237 Rocket 4.3 20:15:46 10° WNW 20:19:49 21° NNW 20:19:49 21° NNW
